RED-EYE (44364 NORAD) Tracking and Keplerian Element Data

This shows tracking and keplerian element data for the satellite.

Feedback or suggestion? Click here.




ElementValue
Catalog44364
NameRED-EYE
Epoch Orbit368
Epoch Day201.98768934
Epoch Year2019
RAAN193.4989
Inclination51.6417
Eccentricity0.0008268
Argument of Perigee166.9553
Mean Anonmoly193.1644
Mean Motion15.51489873
Decay Rate9.66E-06
L11 44364U 98067QJ 19201.98768934 .00000966 00000-0 23820-4 0 9998
L22 44364 51.6417 193.4989 0008268 166.9553 193.1644 15.51489873 3685

Live tracking and technical data element details for RED-EYE (NORAD 44364). RED-EYE can be tracked NOW for your location showing map with azimuth and elevation plus other details from your city location.

Track the satellite on the map from your city or location and see movement details for azimuth, elevation, latitude, longitude, range, height, and movement on the map or in text.







IsCatalogInMostPopularTable: catalog: 44364, numindb: 15
Update: records affected: 1



GetName: 44364 RED-EYE

Hit Count: updated at: Sun, 21 Jul 2019 21:53:29 GMT